Regional Weather Roundup
Issued by NWS

Home | Current Version | Previous Version | Text Only | Print | Product List | Glossary Off
Versions: 1 2 3 4 5 6 7 8 9 10 11 12 13 14 15 16 17 18 19 20 21 22 23 24 25 26 27 28 29 30 31 32 33 34 35 36 37 38 39 40 41 42 43 44 45 46 47 48 49 50

000
ASUS43 KIND 231700
RWRIN

WEATHER ROUNDUP FOR INDIANA
NATIONAL WEATHER SERVICE INDIANAPOLIS IN
100 PM EDT MON OCT 23 2017

NOTE: "FAIR" INDICATES FEW OR NO CLOUDS BELOW 12,000 FEET WITH NO
SIGNIFICANT WEATHER AND/OR OBSTRUCTIONS TO VISIBILITY.

* - STATION DOES NOT REPORT WEATHER SUCH AS PRECIPITATION OR FOG.

+ - STATION NOT QUALITY CONTROLLED BY THE NATIONAL WEATHER SERVICE.
    USE DATA WITH CAUTION...ESPECIALLY DEWPOINT AND RELATIVE
    HUMIDITY OBSERVATIONS.

INZ001>003-010>013-019-020-231800-
NORTHWEST INDIANA

CITY           SKY/WX    TMP DP  RH WIND       PRES   REMARKS
GARY /AIRPORT/ RAIN      54  50  87 N12G23    29.71F
MICHIGAN CITY+ RAIN      54  54 100 N9G20     29.72F
MONTICELLO +   RAIN      55  54  95 NW10G16   29.68F
VALPARAISO     RAIN      55  54  94 N12G23    29.72F FOG

$$

LMZ046-743>745-231800-
SOUTHERN LAKE MICHIGAN

STATION/POSITION TIME  TEMP    WIND        PRES    WAVE
                       AIR SEA DIR/SP/G            HT
                 (UTC) (F)     (DEG/KT/KT) (MB)    (FT)
BURNS HARBOR     1640   55      20/ 20/ 23 1007.8F
MICHIGAN CITY    1630   55      10/ 23/ 25   N/A
5NW MICH CITY    1650   55 57   10/ 19/ 25   N/A     7

$$

INZ004-005-014>016-021>024-231800-
NORTH CENTRAL INDIANA

CITY           SKY/WX    TMP DP  RH WIND       PRES   REMARKS
ELKHART        RAIN      55  54  94 N6        29.70F
GOSHEN         LGT RAIN  61  57  87 N8        29.68F FOG
PERU/GRISSOM   LGT RAIN  62  62 100 SE7       29.65F FOG
SOUTH BEND     RAIN      52  52 100 N12       29.71F FOG

$$

INZ006>009-017-018-025>027-231800-
NORTHEAST INDIANA

CITY           SKY/WX    TMP DP  RH WIND       PRES   REMARKS
FORT WAYNE     CLOUDY    63  59  87 SE7       29.68F
KENDALLVILLE + DRIZZLE   61  59  94 SE7       29.70F

$$

INZ028-029-035-036-043>045-051>053-231800-
WEST CENTRAL INDIANA

CITY           SKY/WX    TMP DP  RH WIND       PRES   REMARKS
LAFAYETTE      LGT RAIN  56  55  97 NW10      29.70R
TERRE HAUTE    LGT RAIN  56  53  90 W10       29.75R

$$

INZ030>032-037>040-046>048-054>057-064-065-231800-
CENTRAL INDIANA

CITY           SKY/WX    TMP DP  RH WIND       PRES   REMARKS
ANDERSON       CLOUDY    63  59  88 S6        29.68F
COLUMBUS       RAIN      61  59  94 SW12      29.74S
GREENWOOD *+   CLOUDY    65  61  88 SW7       29.72F
INDIANAPOLIS   LGT RAIN  62  59  90 SW14      29.71R
-EAGLE CREEK   LGT RAIN  62  57  83 SW9G23    29.70R
KOKOMO +       LGT RAIN  62  61  96 S10       29.66F
MT COMFORT *+  CLOUDY    61  61 100 S9        29.71S
SHELBYVILLE    LGT RAIN  63  58  83 S12G18    29.70F

$$

INZ033-034-041-042-049-050-058-059-231800-
EAST CENTRAL INDIANA

CITY           SKY/WX    TMP DP  RH WIND       PRES   REMARKS
MUNCIE         CLOUDY    65  57  75 SW10G18   29.68F
RICHMOND +     CLOUDY    63  59  88 SW14      29.74F

$$

INZ060-061-067>069-081>083-085>088-231800-
SOUTHWEST INDIANA

CITY           SKY/WX    TMP DP  RH WIND       PRES   REMARKS
EVANSVILLE     CLOUDY    55  52  89 W15       29.79F FOG
HUNTINGBURG +  CLOUDY    55  53  93 SW13      29.76F

$$

INZ062-063-066-070>080-084-089>092-231800-
SOUTH CENTRAL AND SOUTHEAST INDIANA

CITY           SKY/WX    TMP DP  RH WIND       PRES   REMARKS
BLOOMINGTON    CLOUDY    57  53  86 SW12      29.74F
MADISON *+     CLOUDY    63  61  94 CALM      29.73F
SEYMOUR +      LGT RAIN  63  61  94 W16G22    29.72F

$$





USA.gov is the U.S. government's official web portal to all federal, state and local government web resources and services.